Regional Weather Roundup
Issued by NWS

Home | Current Version | Previous Version | Text Only | Print | Product List | Glossary Off
Versions: 1 2 3 4 5 6 7 8 9 10 11 12 13 14 15 16 17 18 19 20 21 22 23 24 25 26 27 28 29 30 31 32 33 34 35 36 37 38 39 40 41 42 43 44 45 46 47 48 49 50

000
ASUS43 KTOP 210608
RWRKS

WEATHER ROUNDUP FOR KANSAS
NATIONAL WEATHER SERVICE GOODLAND KS
100 AM CDT THU SEP 21 2017

NOTE:  "FAIR" INDICATES FEW OR NO CLOUDS BELOW 12,000 FEET WITH NO
SIGNIFICANT WEATHER AND/OR OBSTRUCTIONS TO VISIBILITY.

KSZ001>006-013>018-027>032-041>047-210700-
NORTHWEST KANSAS

CITY           SKY/WX    TMP DP  RH WIND       PRES   REMARKS
GOODLAND       CLEAR     53  36  52 S10       29.88F
6HR MIN TEMP:  50; 6HR MAX TEMP:  75;

HAYS           CLEAR     62  52  69 NE7       29.86F
HILL CITY      CLEAR     56  42  59 NE5       29.88S
6HR MIN TEMP:  56; 6HR MAX TEMP:  81;

RUSSELL        CLEAR     65  54  67 NE7       29.84F
6HR MIN TEMP:  64; 6HR MAX TEMP:  82;

$$

KSZ061>065-074>080-084>089-210700-
SOUTHWEST KANSAS

CITY           SKY/WX    TMP DP  RH WIND       PRES   REMARKS
DODGE CITY     CLEAR     60  48  64 S5        29.88S
6HR MIN TEMP:  59; 6HR MAX TEMP:  82;

ELKHART          N/A     62  45  53 S8          N/A
GARDEN CITY    CLEAR     59  46  62 SE12      29.87F
6HR MIN TEMP:  59; 6HR MAX TEMP:  80;

GREAT BEND     CLEAR     67  56  67 E6        29.85F
LIBERAL        CLEAR     59  47  64 S8        29.89F
PRATT          CLEAR     70  55  58 E6        29.85F
6HR MIN TEMP:  70; 6HR MAX TEMP:  83;

$$

KSZ066>073-081>083-090>101-210700-
SOUTHEAST KANSAS

CITY           SKY/WX    TMP DP  RH WIND       PRES   REMARKS
CHANUTE        MOCLDY    81  72  74 S10       29.89R
6HR MIN TEMP:  79; 6HR MAX TEMP:  87;

COFFEYVILLE    PTCLDY    78  72  81 SE7       29.88R
6HR MIN TEMP:  78; 6HR MAX TEMP:  87;

HUTCHINSON     CLEAR     73  64  73 SE6       29.84S
6HR MIN TEMP:  70; 6HR MAX TEMP:  86;

MEDICINE LODGE   N/A     75  67  76 S3        29.83F
NEWTON         PTCLDY    75  70  84 SE8       29.87R
WICHITA INTL   PTCLDY    77  72  84 SE8       29.84S
6HR MIN TEMP:  77; 6HR MAX TEMP:  88;

WICHITA JABRA  CLEAR     77  73  87 S8        29.85S
6HR MIN TEMP:  77; 6HR MAX TEMP:  88;

WICHITA MCCONL CLEAR     77  70  78 S12       29.85S
WINFIELD       CLEAR     79  73  82 S9        29.86S
6HR MIN TEMP:  78; 6HR MAX TEMP:  88;

$$

KSZ007>012-019>026-033>040-048>060-102>105-210700-
NORTHEAST KANSAS

CITY           SKY/WX    TMP DP  RH WIND       PRES   REMARKS
CONCORDIA      PTCLDY    65  59  81 E6        29.85F
6HR MIN TEMP:  63; 6HR MAX TEMP:  78;

EMPORIA        CLEAR     77  71  82 S13       29.86R
6HR MIN TEMP:  76; 6HR MAX TEMP:  86;

LAWRENCE       PTCLDY    78  74  87 SE6       29.86R
6HR MIN TEMP:  77; 6HR MAX TEMP:  85;

MANHATTAN      MOCLDY    74  68  81 NE5       29.84R
6HR MIN TEMP:  74; 6HR MAX TEMP:  85;

MARYSVILLE     MOCLDY    68  59  73 E3        29.86S
OLATHE IND     PTCLDY    78  73  84 S8        29.88S
6HR MIN TEMP:  77; 6HR MAX TEMP:  84;

OLATHE EXE     MOCLDY    75  73  93 S6        29.89R
6HR MIN TEMP:  75; 6HR MAX TEMP:  84;

SALINA         CLEAR     74  62  66 CALM      29.84R
6HR MIN TEMP:  73; 6HR MAX TEMP:  86;

TOPEKA BILLARD PTCLDY    76  74  93 CALM      29.85R
6HR MIN TEMP:  75; 6HR MAX TEMP:  85;

TOPEKA FORBES  CLEAR     78  74  87 SE6       29.86R
6HR MIN TEMP:  78; 6HR MAX TEMP:  85;

$$




USA.gov is the U.S. government's official web portal to all federal, state and local government web resources and services.